This is the latest recevied weather packets stored in our database for station/object K3BAY-1. If no packets are shown the sender has not sent any weather packets the latest 10 day(s).
| Time | Temp. | Humidity | Pressure | Rain* | Wind** | Luminosity | Snow |
|---|---|---|---|---|---|---|---|
| 1777936409 | 20.56° C | 48% | 1011.9 hPa | 0 mm | - | 30 W/m² | - |
| 1777936105 | 20.56° C | 46% | 1011.9 hPa | 0 mm | - | 37 W/m² | - |
| 1777935804 | 20.56° C | 47% | 1011.9 hPa | 0 mm | - | 33 W/m² | - |
| 1777935502 | 21.11° C | 46% | 1011.9 hPa | 0 mm | - | 26 W/m² | - |
| 1777935198 | 21.67° C | 44% | 1012.2 hPa | 0 mm | - | 47 W/m² | - |
| 1777934896 | 21.11° C | 44% | 1011.9 hPa | 0 mm | - | 50 W/m² | - |
| 1777934592 | 21.67° C | 44% | 1012.2 hPa | 0 mm | - | 58 W/m² | - |
| 1777934289 | 21.67° C | 44% | 1011.9 hPa | 0 mm | - | 61 W/m² | - |
| 1777933984 | 21.67° C | 44% | 1012.2 hPa | 0 mm | - | 96 W/m² | - |
| 1777933681 | 21.67° C | 44% | 1012.2 hPa | 0 mm | - | 50 W/m² | - |
| 1777933378 | 22.22° C | 43% | 1012.6 hPa | 0 mm | - | 101 W/m² | - |
| 1777933076 | 22.22° C | 42% | 1012.6 hPa | 0 mm | - | 136 W/m² | - |
| 1777932773 | 22.22° C | 42% | 1012.6 hPa | 0 mm | - | 154 W/m² | - |
| 1777932470 | 22.22° C | 42% | 1012.6 hPa | 0 mm | - | 168 W/m² | - |
| 1777932167 | 22.78° C | 42% | 1012.6 hPa | 0 mm | - | 194 W/m² | - |
| 1777931864 | 22.78° C | 42% | 1012.6 hPa | 0 mm | - | 184 W/m² | - |
| 1777931560 | 22.78° C | 42% | 1012.6 hPa | 0 mm | - | 213 W/m² | - |
| 1777931256 | 22.78° C | 41% | 1012.6 hPa | 0 mm | - | 223 W/m² | - |
| 1777930953 | 22.78° C | 41% | 1012.6 hPa | 0 mm | - | 252 W/m² | - |
| 1777930650 | 22.78° C | 41% | 1012.9 hPa | 0 mm | - | 269 W/m² | - |
| 1777930345 | 23.33° C | 41% | 1012.9 hPa | 0 mm | - | 274 W/m² | - |
| 1777930043 | 23.33° C | 40% | 1012.6 hPa | 0 mm | - | 301 W/m² | - |
| 1777929734 | 22.78° C | 40% | 1012.6 hPa | 0 mm | - | 322 W/m² | - |
| 1777929431 | 22.78° C | 41% | 1012.9 hPa | 0 mm | - | 345 W/m² | - |
| 1777929128 | 22.78° C | 41% | 1012.9 hPa | 0 mm | - | 362 W/m² | - |
* Rain latest hour (hover to see other rain measurements)
** Current wind speed in m/s (hover to see current wind gust speed)